Dewpoint
31 39 32 29 29 29 30 30 29 28 30 35 36 42 41 41 35 34 43 48 44 46 46 47 48 48 49 50 50 52 53 54 54 55 55 55 55 56 57 56 55 55 57 59 58 58 60 61 60 61 63 63 63 64 64 65 65 65 66 64 64 64 64 64 64 64 64 64 65 65 65 65 65 65 65 65 66 66 66 66 67 66 67 67 67 66 67
30 29 29 30 28 29 29 29 28 27 32 33 35 41 42 39 44 42 47 48 43 45 46 47 48 49 49 50 51 52 53 54 55 55 55 54 55 56 56 56 56 56 58 60 59 61 61 59 61 61 62 62 63 63 63 64 64 65 65 64 64 63 63 64 64 64 64 64 65 65 65 64 64 64 65 65 65 65 65 65 65 66 66 67 67 66 66
32 29 29 27 27 28 29 33 33 32 33 33 37 40 43 46 44 45 47 46 44 46 46 47 50 50 52 52 53 53 54 54 55 54 55 55 55 56 57 57 57 57 60 59 59 61 58 60 60 60 60 61 62 62 63 64 65 65 64 63 63 63 64 64 64 64 64 64 64 64 64 64 64 64 64 64 64 64 64 65 65 65 66 66 66 65 65
32 36 28 28 29 30 33 33 33 32 31 33 35 41 38 43 45 47 46 44 44 46 49 50 51 51 50 51 52 54 54 54 54 54 55 57 57 57 57 58 58 59 60 58 60 59 60 60 59 59 60 61 63 62 63 64 64 65 64 63 63 63 64 64 64 63 64 63 63 63 63 63 63 63 64 64 64 64 64 64 65 66 65 65 65 65 65
32 35 28 27 28 29 30 34 34 36 33 34 35 37 44 46 44 44 43 41 45 49 51 48 50 50 51 51 53 54 55 55 54 54 56 57 57 58 58 59 60 60 59 57 60 59 61 59 59 59 61 62 61 61 63 64 65 64 64 63 63 63 64 64 64 63 63 63 63 63 63 63 63 64 63 63 63 63 63 64 65 65 65 64 64 65 65
32 31 27 32 29 27 28 37 42 44 33 35 36 37 40 43 42 43 44 44 49 49 48 47 48 51 52 52 55 55 56 56 56 56 56 57 57 58 59 59 60 60 58 58 60 60 58 59 60 62 63 60 62 64 65 65 64 63 63 63 63 64 64 63 63 63 63 63 62 62 62 62 63 63 63 63 63 63 64 65 64 64 64 64 64 64 65
28 36 34 31 27 30 41 49 44 44 35 39 40 42 42 42 46 47 48 48 48 48 47 47 48 51 54 55 56 56 57 57 57 57 57 57 58 58 59 60 59 58 59 59 59 59 59 59 61 63 64 64 63 64 64 64 63 63 63 63 63 62 62 63 63 63 63 62 62 62 62 62 62 62 62 62 62 63 63 63 64 64 64 64 64 65 65
33 34 35 28 32 41 47 44 44 49 38 39 40 41 46 46 45 46 46 46 48 51 52 52 53 55 56 57 58 57 58 58 58 58 58 58 59 59 59 59 59 59 58 57 55 55 61 61 60 61 61 63 62 62 64 62 62 63 62 62 62 63 63 63 63 63 62 62 62 62 62 62 61 61 61 61 61 62 64 64 64 64 64 64 64 64 64
28 32 37 34 43 39 40 45 41 40 39 40 38 39 43 47 48 45 45 48 52 52 52 53 53 54 54 54 55 58 59 59 58 58 58 60 60 59 59 59 59 59 58 56 57 61 60 59 60 61 61 62 61 62 62 62 62 62 63 62 62 62 64 63 63 63 62 62 62 61 61 61 61 61 61 61 61 62 62 62 62 63 63 63 64 64 64
43 37 35 36 32 33 39 47 49 48 45 44 43 42 43 47 47 48 47 50 49 49 51 52 53 54 52 52 53 56 58 60 60 59 59 60 59 59 60 59 57 58 57 58 62 58 58 58 59 62 63 62 60 61 62 62 63 62 62 62 62 63 63 63 63 63 62 62 62 62 61 61 60 61 61 61 61 62 62 61 62 62 63 63 63 64 65
37 36 35 33 30 33 43 45 49 49 45 41 42 41 40 47 51 50 49 48 48 48 49 50 52 51 50 50 52 55 57 58 58 57 57 58 58 58 57 56 57 58 59 59 61 60 58 58 60 63 62 62 62 62 64 62 62 61 61 61 62 62 62 62 63 63 62 62 62 61 61 61 61 60 60 61 61 62 62 62 63 63 63 62 62 63 64
42 37 33 31 42 40 45 51 49 45 43 40 37 35 38 48 52 47 50 50 50 49 50 50 51 50 50 51 52 54 52 54 56 56 56 56 56 56 57 57 58 59 61 62 59 58 59 60 61 60 61 63 64 62 62 62 60 61 62 62 62 63 63 62 62 63 62 63 63 62 61 61 61 61 61 61 61 61 61 61 61 61 61 62 62 63 64
42 43 37 41 42 49 53 48 45 47 45 40 34 33 38 49 51 50 52 51 53 54 54 53 51 53 53 52 52 51 51 52 53 55 56 56 56 57 57 60 65 60 59 58 57 59 60 61 60 61 61 62 62 63 62 60 61 61 62 62 63 63 62 62 62 62 62 62 61 61 61 60 61 61 62 61 61 60 60 60 60 61 61 62 63 63 63
37 39 40 39 43 48 48 49 48 52 40 35 38 44 50 54 51 53 52 52 53 53 53 54 54 55 55 54 51 50 50 51 51 52 53 54 56 63 69 66 63 58 57 57 58 60 61 61 61 61 61 62 61 61 61 60 61 62 61 62 62 61 61 61 62 62 61 61 61 61 61 61 61 60 60 60 60 59 60 60 60 61 61 62 62 62 62
42 43 40 37 32 44 51 51 47 53 44 43 49 52 53 54 52 51 52 51 50 49 48 49 49 49 49 49 49 49 48 47 48 50 53 54 55 57 57 58 61 56 55 56 58 60 62 62 62 61 62 61 61 62 60 61 62 62 62 62 61 61 61 61 61 61 61 61 61 61 61 61 60 59 59 59 59 60 60 60 60 60 60 60 60 60 61
39 40 39 35 41 45 49 51 44 48 51 50 54 51 51 54 53 52 52 52 50 48 47 47 47 48 48 49 49 50 51 51 52 53 55 55 55 56 57 59 61 62 58 59 59 60 61 63 62 62 60 59 61 62 60 61 62 63 62 62 61 61 61 61 60 61 61 61 60 59 59 60 59 59 58 58 58 58 58 58 58 58 58 59 59 59 60
44 43 46 49 53 53 53 55 52 54 54 54 52 51 51 51 51 52 50 50 50 48 48 49 48 48 48 49 50 51 52 52 53 53 54 55 55 55 56 58 61 59 58 59 60 60 60 60 61 61 61 60 62 61 60 62 62 62 62 62 61 60 60 60 60 60 59 58 58 59 59 59 58 58 57 57 57 57 58 57 57 57 58 59 58 58 59
52 51 52 53 51 51 53 50 53 52 51 52 52 51 51 52 51 50 50 51 50 50 50 48 48 48 49 50 51 52 53 53 55 56 56 56 57 57 58 58 59 59 59 60 60 60 60 61 61 64 62 60 60 60 61 62 63 61 61 60 60 60 60 60 59 58 58 58 58 58 59 58 57 57 57 57 57 57 57 58 58 58 58 58 58 58 58
42 40 48 51 48 51 53 53 54 54 54 54 52 52 52 53 52 52 52 51 49 47 47 48 49 49 50 50 51 52 53 53 54 55 56 56 57 59 60 61 62 60 60 59 60 61 60 60 61 62 61 62 61 61 62 63 62 61 60 61 61 60 59 59 58 58 58 57 58 59 58 57 56 57 57 57 57 58 58 57 57 58 57 58 58 58 57
43 44 47 52 55 53 53 52 52 52 52 52 51 51 50 50 50 50 50 49 48 49 48 48 49 49 49 49 50 51 53 55 55 56 57 58 58 59 59 61 61 60 59 58 59 60 60 60 61 62 63 61 62 62 62 62 61 61 61 60 60 59 59 59 59 58 58 61 61 58 57 57 57 57 57 58 58 58 58 58 57 57 57 58 58 57 57
53 50 50 53 50 51 53 53 52 51 49 48 48 48 48 48 48 49 49 48 47 48 49 49 49 48 49 50 52 54 54 55 56 57 57 58 58 58 58 60 61 58 58 60 60 61 61 61 61 61 61 61 62 62 61 61 60 59 59 60 60 59 59 59 58 59 59 59 58 58 57 57 58 58 58 58 58 59 59 59 58 58 58 58 59 58 57
46 45 46 52 44 45 50 51 51 50 49 48 49 48 47 48 49 48 46 47 47 47 48 48 48 50 51 53 53 54 56 56 57 58 58 58 58 59 59 60 60 59 63 61 61 61 60 60 61 61 61 61 62 62 61 61 60 58 59 59 59 59 59 59 59 59 59 59 58 58 58 58 58 58 60 57 57 58 58 60 58 55 54 57 57 57 57
45 49 52 51 49 49 50 51 52 50 49 48 47 47 48 49 49 47 46 47 49 49 49 49 48 49 51 54 57 57 58 58 58 58 58 58 57 57 59 57 57 59 60 63 62 61 60 62 61 61 60 61 60 61 61 61 60 59 58 58 59 59 59 59 60 61 60 58 58 58 58 58 58 58 58 58 53 53 54 57 55 51 49 49 50 51 56
51 52 53 56 53 50 52 52 51 50 50 48 48 49 49 48 47 45 45 48 49 49 50 51 49 50 55 57 57 57 57 58 58 58 57 57 57 58 59 58 59 60 60 60 60 60 60 61 60 60 60 60 59 60 60 59 59 58 58 58 58 58 58 59 60 61 58 58 59 58 58 57 57 58 58 57 57 54 52 53 52 50 49 48 48 48 50
48 53 55 57 56 53 52 51 50 51 51 49 48 48 48 48 47 48 49 50 49 50 50 50 51 54 56 57 57 56 56 56 58 59 60 61 59 59 59 60 59 60 59 59 59 59 60 60 60 61 59 59 60 60 59 59 59 58 58 58 57 57 58 58 58 60 58 58 58 57 57 57 57 57 57 57 57 57 57 54 52 50 49 48 48 48 48
54 56 57 58 57 54 53 51 50 51 49 50 50 51 55 55 50 52 50 49 49 49 49 50 52 55 56 56 56 56 57 57 62 61 57 57 58 59 58 59 60 60 59 59 60 60 59 61 60 60 59 59 59 60 60 60 59 57 57 57 57 56 57 57 56 56 56 56 57 57 57 57 57 58 58 58 58 58 58 58 58 55 51 49 49 49 50
56 56 53 52 51 52 50 47 48 51 49 49 50 52 54 56 60 52 52 50 49 49 50 51 52 54 56 57 58 57 57 61 60 57 58 58 59 58 58 59 60 60 61 60 60 61 61 63 61 59 59 59 59 60 59 59 57 56 56 56 56 59 59 59 56 56 56 56 57 57 57 58 58 58 58 58 58 59 59 59 58 58 57 58 55 53 55
55 53 51 50 50 50 50 50 51 52 52 52 54 54 55 52 50 50 50 51 50 51 52 52 52 54 56 58 59 60 58 56 57 58 58 58 58 59 59 60 60 60 60 61 60 61 63 60 60 59 59 59 59 59 59 57 56 56 56 55 55 55 55 56 57 57 56 56 57 57 57 58 59 59 59 58 58 59 59 59 58 57 57 57 58 55 53
56 56 57 51 51 52 52 52 52 51 50 51 51 50 49 49 49 49 49 50 51 52 52 53 55 56 56 57 56 56 57 57 57 57 57 58 60 60 60 60 60 61 61 61 60 60 59 59 59 58 58 59 59 59 57 56 55 55 54 54 54 55 55 56 57 57 57 57 57 58 59 59 59 58 58 58 59 59 59 58 57 57 57 57 56 56 57
56 57 56 55 54 52 51 50 50 50 50 50 49 49 50 50 49 48 49 50 51 51 53 56 57 57 58 57 58 58 57 57 58 58 59 59 59 60 60 60 60 60 60 59 59 59 59 58 59 58 58 59 59 58 56 55 55 55 54 54 55 55 56 57 58 57 57 57 59 60 59 59 58 58 58 58 58 58 58 57 57 57 56 55 56 56 56
54 56 55 54 53 52 50 51 52 51 51 51 52 52 52 51 50 51 52 53 53 53 54 56 57 57 57 58 58 58 58 58 57 58 59 59 59 60 60 59 58 59 59 59 59 59 59 59 58 58 58 58 58 57 56 55 54 54 54 54 55 58 59 60 59 57 57 58 59 58 58 58 57 58 58 58 58 57 56 56 56 55 55 54 54 56 56
52 53 53 53 52 52 52 52 52 52 53 52 52 51 51 51 53 53 54 53 53 55 56 56 57 57 58 58 59 59 57 57 57 58 59 59 59 60 60 59 59 63 59 60 59 61 60 58 57 57 57 57 57 57 55 55 54 54 54 58 57 56 58 59 57 57 58 59 58 57 58 57 56 57 56 57 57 56 55 55 54 54 53 53 54 54 55
50 50 51 52 51 50 51 52 52 52 53 53 54 54 54 53 53 53 53 54 56 57 57 57 57 57 58 58 58 57 57 57 58 58 58 58 58 59 60 60 59 59 60 60 60 60 59 57 56 56 56 56 58 57 55 54 54 54 54 55 56 56 59 58 58 57 58 58 57 56 56 56 56 56 56 57 56 56 55 54 53 53 52 52 52 52 53
49 50 51 52 51 50 51 53 54 54 54 54 54 53 54 54 54 54 54 55 56 57 57 57 58 58 58 57 57 57 56 57 56 57 57 58 59 59 60 62 60 60 59 59 59 58 58 57 56 56 56 58 59 58 55 53 53 53 54 55 56 56 56 56 57 58 56 56 55 55 55 55 55 55 55 55 55 55 54 53 53 52 51 51 51 51 50
51 53 54 54 53 52 54 53 53 54 54 53 54 55 55 54 53 56 58 57 56 57 58 58 58 57 57 57 57 57 57 57 57 57 57 58 58 59 59 60 59 59 59 58 58 58 58 57 57 57 58 59 56 53 56 54 53 53 54 56 59 56 56 57 57 57 56 54 54 54 54 54 54 55 54 54 53 53 52 53 52 52 51 50 50 50 50
57 57 56 54 55 55 53 53 54 53 54 54 55 54 54 54 56 58 58 57 58 59 58 57 58 58 57 56 57 57 57 57 57 57 58 58 58 59 59 58 59 58 57 56 58 59 59 58 66 58 57 54 56 53 54 56 54 53 56 56 57 56 57 57 56 56 56 55 54 54 54 54 54 53 53 52 52 52 52 52 51 51 50 50 50 50 50
55 54 54 56 55 54 54 54 55 54 55 55 55 53 53 53 52 54 57 58 59 58 58 58 56 56 56 57 58 58 58 58 59 58 58 58 59 59 59 59 59 59 58 57 57 59 59 58 60 54 53 54 53 53 56 56 57 55 55 54 55 55 56 55 56 55 55 55 54 53 53 52 51 51 52 51 51 51 52 51 51 50 50 50 50 50 51
57 57 56 56 56 56 56 56 55 54 53 53 56 59 57 56 56 57 58 58 59 59 59 58 58 58 58 58 58 58 58 60 60 60 59 59 59 59 60 59 58 58 57 56 57 59 58 59 54 56 52 52 51 51 53 57 58 55 54 55 55 55 56 55 55 55 55 54 55 53 52 51 50 49 50 49 49 51 51 51 51 51 51 50 51 51 51
57 57 56 56 56 55 54 55 55 54 54 55 55 55 58 57 58 56 55 55 57 60 58 58 58 58 57 58 57 58 58 59 59 59 58 59 60 58 58 59 58 58 57 58 59 59 59 58 59 54 53 51 51 51 55 58 59 55 55 54 54 55 55 56 54 55 54 53 52 52 51 51 51 50 49 49 49 51 52 51 51 51 50 51 51 51 52
55 55 55 55 55 54 53 53 53 54 54 54 55 55 57 55 55 56 57 58 59 62 57 57 57 56 56 57 58 57 58 58 59 59 59 59 60 59 58 58 59 60 61 61 60 59 60 55 55 52 51 51 52 52 56 59 60 56 54 53 54 55 54 56 54 54 54 53 52 52 51 51 51 51 50 49 49 50 50 50 50 51 51 52 51 52 52
55 55 55 55 54 52 52 53 54 55 55 54 53 54 55 55 54 54 55 56 58 58 57 57 57 58 57 57 58 58 60 60 60 59 60 60 58 57 57 56 58 60 60 58 59 62 57 56 56 53 52 52 51 58 56 60 56 54 54 54 54 54 54 54 55 55 54 54 52 50 50 51 50 49 50 49 49 50 50 50 51 51 51 52 51 52 52
55 56 56 55 55 54 55 55 56 54 54 55 58 57 57 55 54 54 56 58 59 58 57 57 61 58 57 58 58 59 58 59 60 60 60 60 59 57 57 57 58 60 64 65 60 58 56 56 56 59 53 53 55 60 61 58 54 53 52 52 52 52 53 54 54 54 55 54 51 49 50 50 49 49 50 50 48 50 50 51 51 51 51 52 52 52 52
56 56 55 55 55 55 56 56 55 54 54 55 57 56 56 57 56 56 56 56 55 56 57 56 61 62 61 57 56 57 57 59 59 59 60 60 60 60 59 57 59 60 65 65 57 54 54 54 50 51 54 57 58 61 59 53 52 50 49 47 49 49 51 51 52 53 53 51 49 49 48 49 47 47 50 48 48 49 50 51 50 51 51 51 52 52 52
58 59 57 56 56 57 58 57 56 56 54 55 57 56 56 56 56 55 55 56 57 57 56 56 56 58 58 57 57 57 58 57 57 58 57 58 59 59 60 59 60 63 63 61 55 55 54 54 50 55 52 57 60 62 56 53 52 49 46 46 47 47 49 49 49 51 50 50 49 48 48 49 46 46 48 48 48 49 50 51 51 51 51 51 52 52 52
58 59 58 57 58 57 55 56 56 55 55 57 57 56 56 56 57 57 57 56 57 58 60 57 57 58 57 58 58 59 60 59 58 59 56 57 57 58 60 65 63 64 62 62 56 55 53 52 55 52 59 58 62 62 52 51 50 49 46 46 45 46 46 47 48 48 50 48 48 48 49 47 46 46 46 48 50 49 50 50 50 51 51 51 51 51 51
60 61 61 63 56 55 55 55 57 58 57 56 56 57 56 54 54 57 58 57 56 59 59 59 58 57 56 58 58 58 59 60 60 61 59 58 57 58 60 63 61 65 60 61 55 54 52 61 54 52 56 59 58 57 50 53 52 47 45 45 45 47 44 45 46 46 47 48 48 47 47 47 46 45 46 48 47 49 50 51 51 50 50 51 51 52 51
60 60 60 59 56 56 59 59 59 57 56 55 53 53 57 59 57 55 56 57 57 59 58 57 56 56 57 57 57 57 58 59 59 60 61 60 62 63 63 64 65 61 64 59 57 54 55 57 58 55 58 60 63 54 46 49 49 46 45 45 44 44 45 44 44 44 45 45 48 49 51 49 47 45 47 48 46 47 49 50 49 50 50 51 51 51 51
59 59 60 60 59 59 59 58 56 54 54 54 55 57 58 57 57 57 58 58 58 57 57 56 57 58 58 58 58 58 58 58 56 57 60 61 61 61 60 59 60 65 60 64 62 61 59 55 52 54 60 62 56 49 46 47 50 48 45 45 43 43 43 43 43 43 43 47 46 45 45 45 44 45 46 46 45 47 48 49 49 50 50 50 50 50 50
60 60 60 60 59 58 56 55 55 56 55 57 57 56 57 58 57 56 56 57 57 56 56 56 57 57 58 59 58 58 61 60 57 56 58 61 61 60 60 63 64 62 63 58 58 57 61 61 60 61 59 61 49 48 46 48 51 50 50 46 46 45 45 44 43 43 43 44 45 45 45 45 45 45 45 45 46 47 48 48 48 49 49 50 50 50 50
59 59 58 58 58 58 57 55 55 55 56 57 56 58 58 56 53 52 55 55 54 57 55 55 56 57 57 58 60 60 62 62 61 62 62 61 61 60 61 61 61 62 66 58 58 57 63 60 60 59 57 55 51 50 50 45 48 48 49 51 49 47 50 47 52 51 46 47 45 45 45 46 45 48 47 46 46 47 47 48 48 49 49 49 49 49 49
58 58 58 60 59 60 58 56 56 57 57 58 58 57 59 54 51 54 55 55 54 54 54 54 54 56 58 58 57 59 61 62 62 65 61 61 60 62 63 62 61 64 62 61 58 57 57 57 55 57 57 59 51 50 50 48 50 50 50 47 49 48 47 48 48 46 45 47 46 46 46 45 44 44 44 46 46 47 48 49 49 48 48 47 46 46 46
60 59 60 60 59 59 58 58 59 59 58 58 58 59 57 56 55 55 55 62 56 54 54 53 52 55 57 57 57 59 62 62 61 63 64 60 60 60 63 65 61 61 61 60 56 56 57 58 60 59 60 54 51 49 58 56 50 49 51 53 53 49 51 52 49 45 46 47 46 45 45 44 43 43 45 45 46 46 47 48 48 48 47 46 45 45 44